Theta_e
322 322 322 322 323 323 323 324 324 324 325 325 325 325 327 327 326 325 318 326 330 354 346 339 341 344 347 346 343 346 328 321 323 321 319 326 322 326 328 325 329 335 336 339 343
321 321 322 322 322 322 322 323 323 324 324 324 325 325 326 327 324 322 337 356 354 356 339 340 343 347 342 340 335 333 325 325 330 328 324 327 325 326 325 325 331 333 339 341 341
321 321 321 321 321 321 322 322 323 323 322 323 324 326 326 325 324 327 345 348 355 350 344 347 342 344 335 339 334 329 322 330 327 329 331 328 327 331 325 321 331 331 335 338 336
320 320 320 320 320 321 321 322 322 322 322 323 324 326 327 323 319 324 347 348 352 338 342 338 334 334 329 326 334 327 334 332 325 328 331 328 327 325 327 325 335 337 337 337 335
319 319 319 319 320 320 320 320 321 321 322 322 324 326 321 319 328 333 353 352 338 333 339 342 337 332 328 325 324 324 333 333 329 330 330 331 330 329 327 330 333 337 337 335 335
318 318 318 319 319 319 319 320 320 320 321 322 325 326 323 318 335 333 339 338 341 341 344 346 341 337 336 334 331 334 330 332 330 329 330 326 327 330 329 330 330 333 334 335 335
318 317 318 318 318 318 318 319 319 319 321 323 325 325 318 318 338 336 339 337 339 340 340 343 344 337 336 332 337 334 325 327 326 330 328 329 324 325 331 331 328 330 331 335 336
317 317 317 317 317 318 317 318 318 320 322 324 327 320 313 331 329 337 336 333 337 338 340 338 338 331 331 335 330 327 324 317 326 326 330 325 315 327 333 331 328 329 331 332 333
318 317 317 317 317 317 317 317 318 321 324 326 320 313 316 330 323 330 333 329 333 337 336 338 332 326 330 325 321 323 314 317 320 327 328 324 319 329 331 332 330 330 330 331 331
316 317 317 317 317 316 315 317 322 322 324 324 322 313 319 321 324 328 335 333 330 329 329 328 324 320 322 322 311 315 314 318 318 322 322 319 321 328 329 331 332 332 332 330 330
317 316 316 316 316 315 313 314 314 311 311 312 314 317 323 326 329 326 331 331 330 325 317 324 316 316 324 323 324 322 316 314 320 322 316 315 316 325 328 327 331 332 333 332 331
317 316 316 315 315 314 310 309 315 314 308 315 316 318 323 326 321 325 329 322 322 316 321 320 314 324 329 326 324 320 315 313 319 322 316 315 315 319 325 326 330 332 333 334 334
316 316 315 314 314 312 313 315 321 317 306 312 316 315 317 319 319 321 324 323 319 318 320 316 321 328 326 323 319 315 312 313 313 316 315 312 310 316 324 326 327 327 336 336 336
316 315 314 312 312 313 314 320 320 317 301 306 307 314 318 318 314 323 325 323 319 315 318 317 322 322 322 321 317 309 320 319 316 311 303 311 302 312 317 321 323 321 326 335 337
315 315 314 311 307 309 315 319 318 314 294 312 309 318 318 313 316 317 323 321 315 316 315 313 316 315 315 317 319 314 320 316 315 308 305 307 302 309 316 316 319 320 324 332 337
314 314 312 314 311 315 316 316 316 300 296 308 311 307 306 311 314 317 317 321 322 316 316 315 321 318 316 320 319 321 316 313 310 305 299 307 305 308 312 314 320 323 325 327 336
313 312 310 316 312 315 315 313 300 296 313 306 305 308 305 304 308 311 310 311 307 302 305 312 314 317 319 313 316 313 306 299 296 297 298 308 305 308 317 319 319 318 323 324 332
311 310 312 315 315 315 312 306 297 308 309 313 311 309 304 305 306 308 306 305 311 309 305 302 302 312 318 313 309 309 306 298 293 294 298 303 301 309 320 320 320 322 324 325 323
309 318 316 318 316 315 308 299 302 308 312 310 309 305 305 308 307 306 304 304 309 311 304 302 304 316 317 316 315 308 303 309 299 298 295 299 303 311 318 318 320 324 326 325 327
311 317 317 321 318 310 304 299 305 311 311 312 305 308 304 307 306 305 304 308 307 310 309 306 302 311 315 314 312 309 311 299 298 290 291 296 299 301 311 313 316 319 322 326 329
314 312 317 320 315 307 299 300 305 310 311 310 307 306 306 307 308 306 307 311 311 310 310 305 300 303 309 305 304 304 302 302 300 297 291 290 295 315 314 316 314 315 329 329 328
313 310 322 319 305 305 300 304 305 307 310 310 311 308 306 308 306 306 307 310 314 313 306 308 301 297 302 310 311 307 304 303 297 296 298 297 298 320 321 315 317 318 327 326 331
308 315 322 317 302 301 304 305 307 307 307 307 308 310 309 305 302 307 309 314 315 312 307 309 302 296 300 303 306 303 307 309 304 300 296 294 298 323 323 324 325 326 329 332 338
311 311 315 314 312 306 302 304 306 310 308 309 308 308 306 304 305 304 306 311 313 312 328 314 302 300 296 301 305 304 308 308 306 300 300 300 304 315 320 323 326 333 335 335 337
315 312 315 309 309 307 305 305 305 306 310 310 306 306 304 300 304 304 308 308 311 318 310 306 299 302 304 308 309 307 308 309 307 307 304 305 306 311 317 321 323 334 327 322 327
313 309 311 310 312 310 305 304 305 307 308 308 307 311 309 304 306 307 309 308 306 311 307 306 300 304 302 308 308 307 309 309 311 311 306 308 306 314 321 321 321 329 327 322 323
316 316 311 308 309 307 308 311 310 311 312 313 313 312 312 313 315 314 314 313 311 307 306 305 304 304 300 308 307 302 307 309 310 311 309 305 310 319 318 320 321 323 325 329 323
Wind_Speed
14 14 14 15 15 14 15 15 15 15 14 14 14 13 13 14 17 4 6 6 6 9 5 5 9 14 13 3 8 8 3 9 10 3 7 13 12 7 10 8 5 6 17 21 20
15 15 15 15 15 15 15 15 15 14 14 14 14 13 13 13 5 8 8 1 6 9 2 8 9 10 3 5 5 4 5 10 10 4 13 15 14 13 12 13 14 22 20 22 19
15 15 16 16 16 16 16 15 15 15 14 14 14 12 11 11 5 4 7 5 8 6 4 8 7 10 15 10 3 2 7 4 3 7 11 8 10 11 18 11 19 25 23 21 18
16 16 16 17 17 17 17 16 17 16 15 15 13 12 9 4 4 4 9 10 4 3 1 13 11 9 3 10 7 5 13 14 2 2 9 7 4 10 13 12 20 21 20 18 17
17 17 17 17 18 18 18 18 18 17 16 15 12 11 4 4 7 7 8 6 5 5 6 4 8 5 6 10 8 17 21 21 7 3 6 9 3 5 18 17 18 21 19 17 16
17 17 18 18 19 19 19 18 18 18 16 15 11 10 3 5 7 13 9 6 8 10 10 10 10 15 12 13 17 16 32 13 11 8 7 9 5 6 17 19 17 16 17 17 16
18 18 18 19 20 20 20 20 20 19 15 14 10 5 5 11 10 12 10 8 8 11 9 10 9 22 10 14 15 25 7 3 5 10 6 9 5 4 20 19 18 16 13 15 15
19 19 19 20 20 21 22 22 21 19 14 12 7 4 9 6 9 12 11 11 11 12 15 9 8 5 6 6 10 5 5 5 9 6 12 11 5 9 21 21 19 18 17 16 13
18 19 19 19 20 21 23 24 23 17 9 7 3 4 9 2 7 10 12 12 12 13 11 12 7 8 6 5 6 3 4 5 4 7 6 8 6 10 15 20 19 19 17 17 15
18 18 18 19 19 20 25 24 8 9 6 8 8 6 8 10 7 11 9 10 9 8 8 9 6 5 4 4 5 6 3 6 4 5 4 4 5 15 15 21 21 20 18 16 16
20 20 19 19 19 17 15 5 3 2 5 10 8 8 9 12 12 8 9 8 8 8 8 10 5 5 9 11 15 19 5 6 8 6 3 7 6 10 17 13 19 19 19 19 17
20 21 21 21 19 16 5 4 8 5 8 15 20 18 21 9 5 7 7 7 6 8 10 9 9 11 10 12 10 11 10 9 6 6 5 7 9 10 14 10 20 21 21 20 17
21 20 21 23 25 5 6 9 11 10 5 11 15 11 17 6 8 10 10 8 9 9 13 9 14 13 10 7 7 7 7 5 3 8 7 7 10 2 10 10 25 12 21 22 23
21 21 21 27 3 5 5 11 11 6 4 9 9 15 15 6 12 12 9 9 7 12 15 10 12 14 10 7 4 7 10 8 7 7 4 4 10 2 1 20 16 15 10 22 23
21 20 19 10 8 5 7 13 5 3 4 8 9 7 12 13 2 10 10 8 10 12 7 12 12 12 10 8 6 7 13 7 7 7 8 11 3 2 2 3 11 16 17 20 24
21 18 20 3 4 11 13 13 4 1 8 5 6 6 7 11 17 15 8 7 8 11 14 13 15 10 8 8 5 6 8 7 7 3 5 18 7 4 3 10 10 19 15 11 22
24 17 9 7 6 10 12 4 1 5 3 8 7 10 8 8 11 8 8 10 7 3 7 11 14 14 14 9 6 5 7 5 6 4 8 6 3 8 16 14 10 4 10 9 15
28 21 9 8 7 8 4 2 5 10 11 8 10 13 11 13 13 15 12 9 10 11 7 6 9 13 14 12 12 9 9 6 7 4 9 8 5 8 9 12 8 7 10 9 8
30 3 4 7 12 4 0 4 7 7 14 10 2 4 9 11 11 13 14 12 9 12 11 7 13 17 16 11 16 11 5 11 4 6 5 6 12 6 2 7 5 8 9 8 7
5 4 7 6 12 3 2 6 8 10 18 9 6 6 6 8 8 11 12 15 17 15 9 9 10 11 17 7 8 10 6 2 5 4 7 7 9 8 5 4 4 6 6 6 7
4 3 3 14 8 1 5 7 9 14 16 4 7 10 12 11 7 7 10 10 11 18 17 10 6 10 6 6 8 7 3 3 7 6 6 4 8 6 12 10 10 7 9 9 7
5 4 9 6 3 4 7 6 7 19 20 9 2 7 10 9 7 8 9 6 13 7 3 3 4 6 12 9 7 8 9 7 6 9 6 4 7 12 14 5 6 5 8 5 5
5 4 4 7 4 8 10 17 20 19 17 11 5 5 7 8 7 7 10 11 11 6 3 6 5 5 12 9 7 4 5 3 5 4 5 3 4 16 19 18 20 3 10 9 9
4 4 3 3 7 9 9 10 13 17 17 7 7 9 9 7 7 6 9 12 14 8 1 4 2 4 6 10 6 9 11 7 3 2 1 5 1 8 12 16 19 21 18 20 20
4 4 4 3 5 10 9 11 16 14 10 5 2 5 8 7 8 8 9 10 15 6 3 4 5 6 9 11 17 11 14 10 6 7 8 5 4 4 5 11 8 11 16 21 16
4 5 7 9 12 12 9 9 15 16 10 6 8 8 10 6 4 5 6 6 5 10 8 5 7 8 7 10 13 18 12 11 10 8 4 4 3 2 6 9 11 8 10 8 5
6 6 4 8 9 9 7 9 11 9 11 10 6 4 4 7 8 8 8 9 8 5 8 6 3 4 3 8 9 7 8 5 10 5 2 1 1 1 3 6 8 3 5 10 13
Wind_Direction
355 353 348 344 339 335 332 329 327 324 322 320 321 323 325 324 306 199 237 257 181 154 165 253 220 242 239 185 83 108 141 278 262 74 125 105 110 120 152 112 129 149 139 143 151
354 350 345 341 336 333 330 327 322 319 321 320 319 324 326 330 287 244 237 187 137 156 216 249 322 273 290 68 90 127 201 218 233 169 132 139 146 156 126 110 81 117 129 142 148
352 347 342 339 336 332 329 326 320 320 320 320 319 324 323 320 284 224 136 188 184 165 256 335 348 53 30 335 63 227 224 289 324 120 117 123 158 169 129 132 132 136 143 151 153
349 346 342 338 333 330 328 325 321 319 319 316 318 317 313 254 15 122 174 207 176 221 226 49 34 65 96 258 137 293 269 262 178 9 112 33 104 108 106 142 136 138 146 156 158
346 343 339 336 331 329 326 324 319 316 315 312 319 318 302 245 251 147 178 194 162 171 129 117 79 61 194 233 292 266 263 263 145 147 128 49 330 325 113 128 132 138 149 163 167
343 339 336 334 330 327 324 320 314 311 310 309 312 316 233 270 107 151 179 171 230 204 188 168 222 144 233 238 205 221 233 231 170 169 143 143 256 115 126 122 128 144 156 170 177
340 336 333 331 328 325 321 315 312 305 304 300 303 293 266 242 140 165 197 192 223 243 264 210 145 161 213 262 233 247 304 339 229 171 139 121 332 167 137 135 143 153 166 177 183
336 334 331 329 326 323 317 310 306 297 298 283 271 266 254 250 214 183 193 246 217 236 252 270 268 272 212 263 328 316 215 186 245 182 152 160 213 154 149 146 156 167 172 181 191
334 331 329 326 324 321 315 306 296 286 254 254 246 218 264 210 207 214 176 220 230 230 242 256 266 235 313 46 352 281 260 278 185 174 168 181 173 182 165 157 167 170 178 178 187
332 329 326 324 323 324 317 295 276 304 204 216 255 318 248 235 205 215 192 219 255 270 256 236 238 215 343 100 240 250 214 267 226 211 195 237 223 182 185 168 174 173 176 180 184
330 329 326 323 322 328 339 351 317 308 241 214 202 231 295 220 232 190 194 211 245 281 275 270 238 219 220 218 247 271 262 262 168 137 152 275 300 222 195 185 174 178 177 181 184
329 328 324 322 316 318 288 262 268 306 297 228 254 251 266 263 178 220 196 195 221 245 263 277 251 247 212 217 250 284 300 303 253 154 140 256 252 256 170 199 181 183 182 181 177
327 326 326 320 315 280 226 242 287 311 290 273 233 229 248 211 224 223 184 203 235 252 255 255 266 285 188 242 297 269 261 299 1 333 335 326 318 292 97 80 280 184 190 180 180
326 326 330 326 313 341 238 265 254 311 298 262 197 226 242 212 245 249 203 183 215 245 271 268 281 296 266 240 213 282 294 339 353 25 294 344 299 3 300 181 255 250 186 182 183
324 324 324 335 307 283 338 336 338 8 294 161 182 186 190 208 31 205 236 190 225 252 247 264 278 291 293 274 311 285 302 8 353 341 323 291 301 232 55 278 268 249 234 197 184
321 321 329 114 205 249 298 288 328 314 245 147 129 168 174 212 236 260 218 216 204 239 273 276 292 296 284 321 335 305 310 359 324 280 296 272 225 245 83 231 232 239 184 183 175
316 312 302 306 230 343 322 321 313 230 279 150 170 164 196 216 225 241 249 215 197 248 275 282 270 275 277 299 284 299 351 335 329 323 239 279 58 217 206 230 216 207 133 114 164
315 310 226 222 254 327 282 328 249 276 268 188 155 163 175 202 212 209 232 243 205 215 260 252 278 250 247 220 219 212 187 176 260 277 289 308 262 264 199 217 233 139 124 128 140
312 154 237 235 208 246 267 212 221 217 355 0 143 209 208 203 200 191 204 227 226 208 216 235 273 286 286 295 199 241 223 224 279 291 310 265 294 336 254 216 235 145 129 154 132
308 273 229 193 159 178 181 252 265 317 322 356 348 331 328 289 190 170 184 211 228 232 212 232 250 254 273 314 302 175 196 351 345 316 285 310 306 251 192 174 106 115 211 136 124
248 265 80 148 156 170 217 239 283 275 272 283 304 319 324 329 349 244 204 247 227 222 219 227 224 272 244 266 250 315 289 211 171 165 201 263 277 188 197 211 187 154 114 141 154
307 270 156 149 145 210 233 246 267 283 292 289 124 287 293 319 328 340 334 349 0 345 8 240 207 248 233 251 266 243 259 206 157 264 238 207 261 342 338 212 20 30 102 92 29
298 277 180 177 218 228 251 244 244 269 277 282 231 216 270 296 322 333 327 328 339 329 60 350 346 1 343 333 293 330 338 331 317 220 234 189 324 352 19 14 9 41 144 115 97
275 279 167 198 252 260 276 281 276 233 255 285 358 354 329 322 312 310 316 309 312 338 190 61 297 198 227 249 289 311 308 300 87 69 283 181 244 3 6 17 10 15 24 40 38
233 277 40 292 260 238 248 279 296 299 242 187 226 286 278 301 314 301 296 296 297 295 224 164 237 275 289 294 298 292 297 308 270 219 143 291 37 3 30 61 40 59 37 33 30
324 353 331 289 297 315 205 240 266 288 297 253 162 214 258 243 261 303 346 333 265 327 339 287 251 233 262 267 276 290 302 311 348 356 32 53 329 191 359 86 48 42 102 87 97
342 334 296 292 307 319 287 275 288 254 291 288 355 219 14 38 21 338 317 303 296 314 312 311 1 16 271 329 339 351 336 30 116 98 100 159 197 86 26 65 101 22 343 166 154